M I D A S
Marine Information and Data Acquisition System
Tripno 1107 of the Zeeleeuw from 2006-06-01 04:00:15 to 2006-06-01 19:43:05
Back to CruiseResearch ActivitiesStationsMapUnderway DataData graphs

EquipmentUnitsComments
TimeDGPSUTC
LatitudeDGPSDM.mWGS84
LongitudeDGPSDM.mWGS84
SpeedMeteo Stationm/sRelative wind speed
DirectionMeteo StationdegRelative wind direction
TemperatureMeteo Stationdeg CelciusAir temperature
PressureMeteo StationPaAtmospheric pressure
HumidityMeteo Station%Relative humidity
Missing or incorrect values are displayed as -999
Metereological data collected by the RV Zeeleeuw from 2006-06-01 03:57:29 to 2006-06-01 19:43:58
                                                                                    Next 1000 lines
Time Latitude Longitude Speed Direction Temperature Pressure Humidity
2006-06-01 03:57:38 51°13.602 2°56.098 -999 203 9.6 102510 68
2006-06-01 03:57:43 51°13.602 2°56.096 -999 203 9.6 102510 68
2006-06-01 03:57:48 51°13.602 2°56.094 -999 210 9.6 102510 68
2006-06-01 03:57:53 51°13.603 2°56.092 -999 202 9.6 102500 68
2006-06-01 03:57:58 51°13.604 2°56.089 -999 212 9.6 102500 68
2006-06-01 03:58:04 51°13.605 2°56.085 -999 216 9.6 102500 68
2006-06-01 03:58:09 51°13.606 2°56.081 -999 214 9.6 102500 68
2006-06-01 03:58:14 51°13.607 2°56.077 -999 207 9.6 102510 68
2006-06-01 03:58:19 51°13.608 2°56.073 -999 209 9.6 102510 68
2006-06-01 03:58:24 51°13.609 2°56.068 -999 211 9.6 102500 68
2006-06-01 03:58:29 51°13.61 2°56.063 -999 208 9.6 102500 68
2006-06-01 03:58:34 51°13.611 2°56.057 -999 217 9.6 102510 67
2006-06-01 03:58:39 51°13.612 2°56.051 -999 219 9.6 102510 67
2006-06-01 03:58:44 51°13.613 2°56.045 -999 229 9.6 102510 67
2006-06-01 03:58:49 51°13.614 2°56.039 -999 220 9.6 102510 67
2006-06-01 03:58:54 51°13.615 2°56.031 -999 229 9.6 102510 68
2006-06-01 03:58:59 51°13.616 2°56.024 -999 216 9.6 102510 68
2006-06-01 03:59:04 51°13.618 2°56.016 -999 210 9.6 102510 68
2006-06-01 03:59:09 51°13.619 2°56.007 -999 216 9.6 102510 68
2006-06-01 03:59:14 51°13.62 2°55.999 -999 202 9.6 102500 67
2006-06-01 03:59:19 51°13.622 2°55.991 -999 207 9.6 102500 67
2006-06-01 03:59:24 51°13.624 2°55.982 -999 208 9.6 102500 68
2006-06-01 03:59:29 51°13.626 2°55.974 -999 207 9.6 102500 68
2006-06-01 03:59:34 51°13.628 2°55.966 -999 198 9.6 102510 68
2006-06-01 03:59:39 51°13.631 2°55.958 -999 202 9.6 102510 68
2006-06-01 03:59:44 51°13.633 2°55.95 -999 194 9.7 102510 68
2006-06-01 03:59:49 51°13.636 2°55.943 -999 185 9.7 102510 68
2006-06-01 03:59:54 51°13.639 2°55.935 -999 186 9.7 102500 68
2006-06-01 03:59:59 51°13.642 2°55.928 -999 183 9.7 102500 68
2006-06-01 04:00:04 51°13.645 2°55.92 -999 186 9.7 102510 68
2006-06-01 04:00:09 51°13.649 2°55.913 -999 181 9.7 102510 68
2006-06-01 04:00:14 51°13.652 2°55.906 -999 190 9.7 102510 69
2006-06-01 04:00:19 51°13.656 2°55.899 -999 184 9.7 102510 69
2006-06-01 04:00:24 51°13.66 2°55.892 -999 200 9.8 102500 69
2006-06-01 04:00:29 51°13.664 2°55.885 -999 188 9.8 102500 69
2006-06-01 04:00:34 51°13.668 2°55.878 -999 196 9.9 102500 68
2006-06-01 04:00:39 51°13.672 2°55.871 -999 191 9.9 102500 68
2006-06-01 04:00:44 51°13.677 2°55.864 -999 186 10 102500 69
2006-06-01 04:00:49 51°13.681 2°55.857 -999 182 10 102500 69
2006-06-01 04:00:54 51°13.685 2°55.85 -999 199 10.1 102500 70
2006-06-01 04:00:59 51°13.689 2°55.844 -999 202 10.1 102500 70
2006-06-01 04:01:04 51°13.693 2°55.837 -999 207 10.2 102500 69
2006-06-01 04:01:09 51°13.697 2°55.831 -999 207 10.2 102500 69
2006-06-01 04:01:14 51°13.701 2°55.824 -999 205 10.3 102500 69
2006-06-01 04:01:19 51°13.704 2°55.817 -999 196 10.3 102500 69
2006-06-01 04:01:24 51°13.708 2°55.811 -999 200 10.3 102510 66
2006-06-01 04:01:29 51°13.712 2°55.804 -999 196 10.3 102510 66
2006-06-01 04:01:34 51°13.715 2°55.797 -999 197 10.3 102510 65
2006-06-01 04:01:40 51°13.72 2°55.788 -999 197 10.3 102510 65
2006-06-01 04:01:44 51°13.722 2°55.782 -999 195 10.3 102510 66
2006-06-01 04:01:49 51°13.726 2°55.775 -999 204 10.3 102510 66
2006-06-01 04:01:54 51°13.729 2°55.767 -999 201 10.3 102500 67
2006-06-01 04:02:00 51°13.734 2°55.758 -999 198 10.3 102500 67
2006-06-01 04:02:04 51°13.736 2°55.752 -999 202 10.3 102500 68
2006-06-01 04:02:09 51°13.739 2°55.745 -999 213 10.3 102500 68
2006-06-01 04:02:13 51°13.741 2°55.739 -999 213 10.3 102510 65
2006-06-01 04:02:19 51°13.744 2°55.731 -999 212 10.3 102510 65
2006-06-01 04:02:23 51°13.746 2°55.726 -999 212 10.3 102510 65
2006-06-01 04:02:28 51°13.747 2°55.719 -999 209 10.3 102510 65
2006-06-01 04:02:33 51°13.749 2°55.713 -999 208 10.2 102510 64
2006-06-01 04:02:38 51°13.751 2°55.708 -999 218 10.2 102510 64
2006-06-01 04:02:43 51°13.752 2°55.704 -999 226 10.2 102510 64
2006-06-01 04:02:49 51°13.753 2°55.701 -999 223 10.2 102510 64
2006-06-01 04:02:54 51°13.753 2°55.7 -999 235 10.1 102540 64
2006-06-01 04:02:57 51°13.753 2°55.7 -999 222 10.1 102540 64
2006-06-01 04:03:03 51°13.753 2°55.7 -999 238 10.1 102530 64
2006-06-01 04:03:09 51°13.753 2°55.702 -999 250 10.1 102530 64
2006-06-01 04:03:13 51°13.753 2°55.704 -999 254 10.1 102530 64
2006-06-01 04:03:17 51°13.753 2°55.706 -999 254 10.1 102530 64
2006-06-01 04:03:23 51°13.753 2°55.708 -999 253 10 102510 65
2006-06-01 04:03:29 51°13.753 2°55.709 -999 253 10 102510 65
2006-06-01 04:03:33 51°13.753 2°55.709 -999 252 10 102510 65
2006-06-01 04:03:39 51°13.753 2°55.708 -999 255 10 102510 65
2006-06-01 04:03:43 51°13.752 2°55.707 -999 256 10 102510 65
2006-06-01 04:03:48 51°13.751 2°55.705 -999 258 10 102510 65
2006-06-01 04:03:53 51°13.751 2°55.702 -999 254 10 102510 65
2006-06-01 04:03:59 51°13.75 2°55.7 -999 260 10 102510 65
2006-06-01 04:04:03 51°13.749 2°55.698 -999 258 10 102520 65
2006-06-01 04:04:09 51°13.749 2°55.697 -999 265 10 102520 65
2006-06-01 04:04:14 51°13.748 2°55.696 -999 263 9.9 102520 65
2006-06-01 04:04:19 51°13.748 2°55.697 -999 263 9.9 102520 65
2006-06-01 04:04:24 51°13.748 2°55.699 -999 270 9.9 102520 65
2006-06-01 04:04:29 51°13.749 2°55.701 -999 265 9.9 102520 65
2006-06-01 04:04:32 51°13.749 2°55.702 -999 272 9.9 102510 65
2006-06-01 04:04:38 51°13.75 2°55.706 -999 295 9.9 102510 65
2006-06-01 04:04:43 51°13.751 2°55.709 -999 290 9.9 102500 65
2006-06-01 04:04:49 51°13.753 2°55.711 -999 287 9.9 102500 65
2006-06-01 04:04:53 51°13.753 2°55.713 -999 291 9.9 102490 65
2006-06-01 04:04:58 51°13.753 2°55.713 -999 289 9.9 102490 65
2006-06-01 04:05:03 51°13.753 2°55.714 -999 298 9.9 102500 65
2006-06-01 04:05:07 51°13.752 2°55.713 -999 287 9.9 102500 65
2006-06-01 04:05:13 51°13.75 2°55.712 -999 299 9.9 102490 65
2006-06-01 04:05:18 51°13.748 2°55.71 -999 281 9.9 102490 65
2006-06-01 04:05:24 51°13.745 2°55.708 -999 278 9.9 102500 65
2006-06-01 04:05:29 51°13.742 2°55.706 -999 306 9.9 102500 65
2006-06-01 04:05:34 51°13.739 2°55.704 -999 302 9.9 102510 65
2006-06-01 04:05:39 51°13.737 2°55.703 -999 298 9.9 102510 65
2006-06-01 04:05:44 51°13.735 2°55.701 -999 284 9.9 102500 65
2006-06-01 04:05:49 51°13.734 2°55.7 -999 311 9.9 102500 65
2006-06-01 04:05:53 51°13.733 2°55.7 -999 309 9.9 102500 65
2006-06-01 04:05:59 51°13.733 2°55.701 -999 310 9.9 102500 65
2006-06-01 04:06:04 51°13.734 2°55.702 -999 309 9.9 102500 65
2006-06-01 04:06:09 51°13.734 2°55.702 -999 303 9.9 102500 65
2006-06-01 04:06:13 51°13.735 2°55.703 -999 326 9.9 102500 65
2006-06-01 04:06:19 51°13.737 2°55.704 -999 335 9.9 102500 65
2006-06-01 04:06:23 51°13.739 2°55.705 -999 324 9.8 102490 66
2006-06-01 04:06:28 51°13.741 2°55.705 -999 352 9.8 102490 66
2006-06-01 04:06:33 51°13.744 2°55.706 -999 343 9.8 102490 66
2006-06-01 04:06:38 51°13.747 2°55.705 -999 333 9.8 102490 66
2006-06-01 04:06:42 51°13.75 2°55.705 -999 352 9.8 102490 66
2006-06-01 04:06:48 51°13.754 2°55.703 -999 350 9.8 102490 66
2006-06-01 04:06:53 51°13.758 2°55.702 -999 357 9.8 102490 66
2006-06-01 04:06:59 51°13.763 2°55.698 -999 360 9.8 102490 66
2006-06-01 04:07:03 51°13.767 2°55.696 -999 2 9.8 102500 66
2006-06-01 04:07:08 51°13.772 2°55.692 -999 8 9.8 102500 66
2006-06-01 04:07:13 51°13.777 2°55.687 -999 5 9.8 102490 66
2006-06-01 04:07:17 51°13.781 2°55.683 -999 356 9.8 102490 66
2006-06-01 04:07:23 51°13.789 2°55.676 -999 358 9.8 102500 66
2006-06-01 04:07:29 51°13.797 2°55.67 -999 360 9.8 102500 66
2006-06-01 04:07:33 51°13.802 2°55.665 -999 359 9.8 102490 66
2006-06-01 04:07:38 51°13.809 2°55.659 -999 358 9.8 102490 66
2006-06-01 04:07:43 51°13.817 2°55.653 -999 354 9.8 102500 66
2006-06-01 04:07:47 51°13.823 2°55.649 -999 358 9.8 102500 66
2006-06-01 04:07:53 51°13.833 2°55.641 -999 355 9.8 102490 66
2006-06-01 04:07:57 51°13.84 2°55.637 -999 355 9.8 102490 66
2006-06-01 04:08:03 51°13.85 2°55.629 -999 353 9.8 102500 66
2006-06-01 04:08:08 51°13.859 2°55.623 -999 347 9.8 102500 66
2006-06-01 04:08:13 51°13.868 2°55.617 -999 355 9.8 102490 66
2006-06-01 04:08:19 51°13.878 2°55.609 -999 350 9.8 102490 66
2006-06-01 04:08:23 51°13.886 2°55.604 -999 344 9.8 102490 66
2006-06-01 04:08:28 51°13.895 2°55.597 -999 352 9.8 102490 66
2006-06-01 04:08:33 51°13.904 2°55.59 -999 341 9.8 102490 66
2006-06-01 04:08:39 51°13.915 2°55.582 -999 353 9.8 102490 66
2006-06-01 04:08:43 51°13.923 2°55.577 -999 351 9.8 102490 66
2006-06-01 04:08:49 51°13.935 2°55.569 -999 350 9.8 102490 66
2006-06-01 04:08:53 51°13.942 2°55.563 -999 355 9.8 102490 66
2006-06-01 04:08:58 51°13.952 2°55.557 -999 349 9.8 102490 66
2006-06-01 04:09:03 51°13.961 2°55.55 -999 343 9.8 102490 67
2006-06-01 04:09:09 51°13.972 2°55.543 -999 353 9.8 102490 67
2006-06-01 04:09:13 51°13.98 2°55.537 -999 357 9.8 102500 67
2006-06-01 04:09:19 51°13.991 2°55.529 -999 357 9.8 102500 67
2006-06-01 04:09:23 51°13.997 2°55.524 -999 356 9.8 102500 67
2006-06-01 04:09:29 51°14.008 2°55.516 -999 354 9.8 102500 67
2006-06-01 04:09:33 51°14.015 2°55.511 -999 357 9.8 102490 68
2006-06-01 04:09:39 51°14.025 2°55.503 -999 352 9.8 102490 68
2006-06-01 04:09:43 51°14.032 2°55.499 -999 350 9.8 102500 68
2006-06-01 04:09:48 51°14.04 2°55.493 -999 351 9.8 102500 68
2006-06-01 04:09:53 51°14.049 2°55.487 -999 348 9.8 102490 67
2006-06-01 04:09:58 51°14.058 2°55.481 -999 342 9.8 102490 67
2006-06-01 04:10:03 51°14.066 2°55.475 -999 352 9.8 102490 67
2006-06-01 04:10:09 51°14.076 2°55.469 -999 349 9.8 102490 67
2006-06-01 04:10:13 51°14.083 2°55.464 -999 350 9.8 102480 67
2006-06-01 04:10:19 51°14.093 2°55.457 -999 351 9.8 102480 67
2006-06-01 04:10:23 51°14.1 2°55.452 -999 353 9.8 102480 67
2006-06-01 04:10:28 51°14.108 2°55.445 -999 354 9.8 102480 67
2006-06-01 04:10:33 51°14.116 2°55.439 -999 345 9.8 102480 66
2006-06-01 04:10:39 51°14.126 2°55.431 -999 350 9.8 102480 66
2006-06-01 04:10:42 51°14.131 2°55.427 -999 352 9.8 102490 66
2006-06-01 04:10:49 51°14.142 2°55.417 -999 350 9.8 102490 66
2006-06-01 04:10:53 51°14.148 2°55.41 -999 355 9.8 102490 67
2006-06-01 04:10:57 51°14.155 2°55.404 -999 349 9.8 102490 67
2006-06-01 04:11:03 51°14.164 2°55.395 -999 350 9.8 102480 66
2006-06-01 04:11:09 51°14.174 2°55.385 -999 354 9.8 102480 66
2006-06-01 04:11:13 51°14.18 2°55.378 -999 357 9.7 102490 66
2006-06-01 04:11:19 51°14.19 2°55.368 -999 359 9.7 102490 66
2006-06-01 04:11:23 51°14.197 2°55.361 -999 355 9.7 102490 66
2006-06-01 04:11:28 51°14.205 2°55.351 -999 7 9.7 102490 66
2006-06-01 04:11:33 51°14.213 2°55.341 -999 3 9.7 102490 66
2006-06-01 04:11:37 51°14.22 2°55.332 -999 2 9.7 102490 66
2006-06-01 04:11:44 51°14.231 2°55.317 -999 4 9.8 102490 67
2006-06-01 04:11:49 51°14.239 2°55.305 -999 7 9.8 102490 67
2006-06-01 04:11:53 51°14.246 2°55.296 -999 8 9.8 102500 67
2006-06-01 04:11:58 51°14.254 2°55.283 -999 12 9.8 102500 67
2006-06-01 04:12:03 51°14.262 2°55.27 -999 10 9.8 102490 69
2006-06-01 04:12:08 51°14.27 2°55.256 -999 13 9.8 102490 69
2006-06-01 04:12:13 51°14.278 2°55.242 -999 10 9.8 102490 68
2006-06-01 04:12:19 51°14.288 2°55.224 -999 10 9.8 102490 68
2006-06-01 04:12:23 51°14.295 2°55.213 -999 14 9.8 102500 67
2006-06-01 04:12:29 51°14.304 2°55.194 -999 13 9.8 102500 67
2006-06-01 04:12:33 51°14.31 2°55.182 -999 11 9.8 102500 67
2006-06-01 04:12:39 51°14.32 2°55.162 -999 15 9.8 102500 67
2006-06-01 04:12:43 51°14.326 2°55.149 -999 9 9.8 102500 67
2006-06-01 04:12:48 51°14.334 2°55.134 -999 9 9.8 102500 67
2006-06-01 04:12:52 51°14.34 2°55.121 -999 7 9.9 102500 69
2006-06-01 04:12:59 51°14.351 2°55.097 -999 4 9.9 102500 69
2006-06-01 04:13:03 51°14.357 2°55.085 -999 3 9.9 102490 69
2006-06-01 04:13:08 51°14.366 2°55.069 -999 6 9.9 102490 69
2006-06-01 04:13:13 51°14.374 2°55.053 -999 7 9.9 102490 69
2006-06-01 04:13:18 51°14.382 2°55.037 -999 10 9.9 102490 69
2006-06-01 04:13:23 51°14.391 2°55.021 -999 7 9.9 102510 68
2006-06-01 04:13:29 51°14.402 2°55.002 -999 12 9.9 102510 68
2006-06-01 04:13:32 51°14.408 2°54.993 -999 11 9.8 102500 68
2006-06-01 04:13:39 51°14.422 2°54.971 -999 9 9.8 102500 68
2006-06-01 04:13:42 51°14.429 2°54.962 -999 11 9.8 102490 67
2006-06-01 04:13:49 51°14.443 2°54.941 -999 15 9.8 102490 67
2006-06-01 04:13:53 51°14.451 2°54.928 -999 11 9.8 102490 67
2006-06-01 04:13:58 51°14.462 2°54.911 -999 9 9.8 102490 67
2006-06-01 04:14:03 51°14.472 2°54.894 -999 9 9.8 102500 67
2006-06-01 04:14:09 51°14.485 2°54.874 -999 14 9.8 102500 67
2006-06-01 04:14:13 51°14.493 2°54.86 -999 9 9.8 102490 67
2006-06-01 04:14:19 51°14.506 2°54.839 -999 10 9.8 102490 67
2006-06-01 04:14:23 51°14.515 2°54.825 -999 7 9.9 102510 68
2006-06-01 04:14:28 51°14.526 2°54.808 -999 8 9.9 102510 68
2006-06-01 04:14:34 51°14.538 2°54.789 -999 13 9.8 102480 68
2006-06-01 04:14:39 51°14.548 2°54.772 -999 10 9.8 102480 68
2006-06-01 04:14:43 51°14.557 2°54.757 -999 13 9.8 102500 68
2006-06-01 04:14:49 51°14.569 2°54.736 -999 17 9.8 102500 68
2006-06-01 04:14:53 51°14.578 2°54.72 -999 18 9.8 102460 68
2006-06-01 04:14:57 51°14.587 2°54.705 -999 14 9.8 102460 68
2006-06-01 04:15:03 51°14.599 2°54.684 -999 14 9.8 102450 68
2006-06-01 04:15:08 51°14.609 2°54.665 -999 16 9.8 102450 68
2006-06-01 04:15:13 51°14.62 2°54.645 -999 16 9.8 102470 68
2006-06-01 04:15:19 51°14.633 2°54.624 -999 17 9.8 102470 68
2006-06-01 04:15:23 51°14.642 2°54.608 -999 15 9.8 102470 68
2006-06-01 04:15:29 51°14.656 2°54.586 -999 15 9.8 102470 68
2006-06-01 04:15:33 51°14.664 2°54.571 -999 15 9.8 102490 68
2006-06-01 04:15:39 51°14.677 2°54.549 -999 15 9.8 102490 68
2006-06-01 04:15:43 51°14.686 2°54.532 -999 14 9.9 102460 68
2006-06-01 04:15:48 51°14.698 2°54.512 -999 15 9.9 102460 68
2006-06-01 04:15:53 51°14.709 2°54.493 -999 13 9.8 102480 68
2006-06-01 04:15:59 51°14.72 2°54.471 -999 12 9.8 102480 68
2006-06-01 04:16:04 51°14.732 2°54.45 -999 13 9.8 102470 66
2006-06-01 04:16:08 51°14.74 2°54.434 -999 16 9.8 102470 66
2006-06-01 04:16:13 51°14.751 2°54.414 -999 15 9.8 102470 67
2006-06-01 04:16:19 51°14.764 2°54.39 -999 14 9.8 102470 67
2006-06-01 04:16:23 51°14.772 2°54.375 -999 13 9.8 102470 68
2006-06-01 04:16:29 51°14.785 2°54.349 -999 16 9.8 102470 68
2006-06-01 04:16:34 51°14.795 2°54.328 -999 16 9.8 102480 67
2006-06-01 04:16:39 51°14.804 2°54.307 -999 19 9.8 102480 67
2006-06-01 04:16:43 51°14.811 2°54.291 -999 23 9.8 102490 68
2006-06-01 04:16:49 51°14.822 2°54.263 -999 24 9.8 102490 68
2006-06-01 04:16:53 51°14.829 2°54.246 -999 21 9.8 102480 67
2006-06-01 04:16:57 51°14.836 2°54.228 -999 21 9.8 102480 67
2006-06-01 04:17:03 51°14.846 2°54.202 -999 24 9.8 102480 68
2006-06-01 04:17:08 51°14.854 2°54.177 -999 28 9.8 102480 68
2006-06-01 04:17:13 51°14.859 2°54.154 -999 30 9.8 102490 68
2006-06-01 04:17:19 51°14.866 2°54.127 -999 29 9.8 102490 68
2006-06-01 04:17:23 51°14.871 2°54.107 -999 28 9.8 102480 68
2006-06-01 04:17:29 51°14.878 2°54.078 -999 31 9.8 102480 68
2006-06-01 04:17:33 51°14.881 2°54.058 -999 27 9.8 102480 67
2006-06-01 04:17:39 51°14.886 2°54.028 -999 31 9.8 102480 67
2006-06-01 04:17:43 51°14.89 2°54.008 -999 30 9.8 102480 68
2006-06-01 04:17:49 51°14.895 2°53.979 -999 28 9.8 102480 68
2006-06-01 04:17:53 51°14.897 2°53.959 -999 26 9.8 102480 68
2006-06-01 04:17:59 51°14.902 2°53.929 -999 29 9.8 102480 68
2006-06-01 04:18:03 51°14.905 2°53.908 -999 31 9.8 102490 68
2006-06-01 04:18:08 51°14.908 2°53.883 -999 28 9.8 102490 68
2006-06-01 04:18:13 51°14.912 2°53.859 -999 29 9.8 102470 68
2006-06-01 04:18:19 51°14.917 2°53.828 -999 31 9.8 102470 68
2006-06-01 04:18:23 51°14.919 2°53.807 -999 32 9.8 102470 68
2006-06-01 04:18:29 51°14.924 2°53.778 -999 34 9.8 102470 68
2006-06-01 04:18:33 51°14.925 2°53.758 -999 32 9.8 102470 69
2006-06-01 04:18:39 51°14.93 2°53.727 -999 32 9.8 102470 69
2006-06-01 04:18:43 51°14.932 2°53.708 -999 32 9.9 102480 69
2006-06-01 04:18:49 51°14.936 2°53.676 -999 31 9.9 102480 69
2006-06-01 04:18:53 51°14.939 2°53.657 -999 26 9.9 102460 68
2006-06-01 04:18:59 51°14.943 2°53.627 -999 26 9.9 102460 68
2006-06-01 04:19:03 51°14.946 2°53.606 -999 28 9.8 102470 67
2006-06-01 04:19:09 51°14.95 2°53.576 -999 27 9.8 102470 67
2006-06-01 04:19:13 51°14.952 2°53.555 -999 30 9.9 102480 68
2006-06-01 04:19:19 51°14.956 2°53.525 -999 29 9.9 102480 68
2006-06-01 04:19:23 51°14.959 2°53.504 -999 28 9.8 102470 67
2006-06-01 04:19:29 51°14.963 2°53.475 -999 28 9.8 102470 67
2006-06-01 04:19:33 51°14.967 2°53.453 -999 29 9.8 102470 67
2006-06-01 04:19:39 51°14.972 2°53.424 -999 30 9.8 102470 67
2006-06-01 04:19:43 51°14.975 2°53.403 -999 32 9.8 102470 67
2006-06-01 04:19:49 51°14.981 2°53.373 -999 29 9.8 102470 67
2006-06-01 04:19:53 51°14.984 2°53.353 -999 30 9.9 102480 67
2006-06-01 04:19:59 51°14.99 2°53.323 -999 30 9.9 102480 67
2006-06-01 04:20:03 51°14.993 2°53.303 -999 29 9.8 102460 67
2006-06-01 04:20:09 51°14.999 2°53.273 -999 29 9.8 102460 67
2006-06-01 04:20:13 51°15.003 2°53.252 -999 29 9.9 102460 68
2006-06-01 04:20:19 51°15.009 2°53.222 -999 27 9.9 102460 68
2006-06-01 04:20:23 51°15.013 2°53.202 -999 24 9.9 102470 68
2006-06-01 04:20:29 51°15.02 2°53.174 -999 26 9.9 102470 68
2006-06-01 04:20:33 51°15.025 2°53.154 -999 30 9.8 102470 67
2006-06-01 04:20:39 51°15.032 2°53.125 -999 25 9.8 102470 67
2006-06-01 04:20:43 51°15.037 2°53.106 -999 22 9.8 102470 66
2006-06-01 04:20:49 51°15.044 2°53.077 -999 23 9.8 102470 66
2006-06-01 04:20:53 51°15.05 2°53.058 -999 21 9.8 102460 67
2006-06-01 04:20:59 51°15.058 2°53.029 -999 22 9.8 102460 67
2006-06-01 04:21:03 51°15.063 2°53.009 -999 22 9.8 102470 67
2006-06-01 04:21:09 51°15.071 2°52.98 -999 22 9.8 102470 67
2006-06-01 04:21:13 51°15.077 2°52.962 -999 21 9.8 102470 67
2006-06-01 04:21:19 51°15.084 2°52.932 -999 20 9.8 102470 67
2006-06-01 04:21:23 51°15.09 2°52.914 -999 24 9.8 102460 66
2006-06-01 04:21:29 51°15.099 2°52.885 -999 19 9.8 102460 66
2006-06-01 04:21:33 51°15.104 2°52.867 -999 20 9.8 102480 66
2006-06-01 04:21:39 51°15.112 2°52.838 -999 19 9.8 102480 66
2006-06-01 04:21:43 51°15.119 2°52.818 -999 26 9.8 102470 66
2006-06-01 04:21:48 51°15.126 2°52.796 -999 21 9.8 102470 66
2006-06-01 04:21:53 51°15.132 2°52.771 -999 18 9.8 102480 66
2006-06-01 04:21:59 51°15.14 2°52.742 -999 18 9.8 102480 66
2006-06-01 04:22:03 51°15.146 2°52.723 -999 19 9.8 102480 67
2006-06-01 04:22:09 51°15.155 2°52.696 -999 22 9.8 102480 67
2006-06-01 04:22:13 51°15.161 2°52.676 -999 23 9.8 102470 67
2006-06-01 04:22:19 51°15.17 2°52.647 -999 23 9.8 102470 67
2006-06-01 04:22:23 51°15.175 2°52.628 -999 20 9.8 102490 68
2006-06-01 04:22:28 51°15.182 2°52.604 -999 26 9.8 102490 68
2006-06-01 04:22:33 51°15.188 2°52.578 -999 21 9.8 102480 67
2006-06-01 04:22:39 51°15.196 2°52.551 -999 25 9.8 102480 67
2006-06-01 04:22:43 51°15.201 2°52.531 -999 27 9.8 102480 68
2006-06-01 04:22:49 51°15.207 2°52.503 -999 24 9.8 102480 68
2006-06-01 04:22:53 51°15.212 2°52.483 -999 25 9.9 102490 69
2006-06-01 04:22:59 51°15.219 2°52.455 -999 23 9.9 102490 69
2006-06-01 04:23:04 51°15.225 2°52.43 -999 25 9.8 102470 67
2006-06-01 04:23:09 51°15.232 2°52.406 -999 25 9.8 102470 67
2006-06-01 04:23:13 51°15.237 2°52.385 -999 31 9.9 102470 68
2006-06-01 04:23:19 51°15.243 2°52.358 -999 25 9.9 102470 68
2006-06-01 04:23:23 51°15.248 2°52.338 -999 24 9.9 102480 69
2006-06-01 04:23:29 51°15.256 2°52.309 -999 20 9.9 102480 69
2006-06-01 04:23:33 51°15.261 2°52.29 -999 25 9.9 102450 68
2006-06-01 04:23:39 51°15.267 2°52.261 -999 24 9.9 102450 68
2006-06-01 04:23:43 51°15.272 2°52.242 -999 24 9.9 102460 68
2006-06-01 04:23:49 51°15.279 2°52.212 -999 23 9.9 102460 68
2006-06-01 04:23:53 51°15.284 2°52.193 -999 25 9.9 102480 68
2006-06-01 04:23:59 51°15.29 2°52.165 -999 30 9.9 102480 68
2006-06-01 04:24:03 51°15.294 2°52.144 -999 27 9.8 102460 67
2006-06-01 04:24:08 51°15.3 2°52.119 -999 29 9.8 102460 67
2006-06-01 04:24:13 51°15.304 2°52.096 -999 31 9.8 102490 67
2006-06-01 04:24:19 51°15.31 2°52.066 -999 33 9.8 102490 67
2006-06-01 04:24:24 51°15.315 2°52.041 -999 30 9.8 102470 67
2006-06-01 04:24:29 51°15.32 2°52.017 -999 30 9.8 102470 67
2006-06-01 04:24:33 51°15.324 2°51.997 -999 31 9.8 102470 67
2006-06-01 04:24:39 51°15.33 2°51.968 -999 31 9.8 102470 67
2006-06-01 04:24:43 51°15.335 2°51.947 -999 26 9.8 102470 67
2006-06-01 04:24:49 51°15.341 2°51.919 -999 26 9.8 102470 67
2006-06-01 04:24:53 51°15.344 2°51.899 -999 20 9.8 102470 68
2006-06-01 04:24:57 51°15.349 2°51.879 -999 20 9.8 102470 68
2006-06-01 04:25:03 51°15.354 2°51.851 -999 20 9.8 102480 68
2006-06-01 04:25:09 51°15.36 2°51.821 -999 24 9.8 102480 68
2006-06-01 04:25:13 51°15.365 2°51.801 -999 20 9.9 102470 69
2006-06-01 04:25:19 51°15.371 2°51.772 -999 21 9.9 102470 69
2006-06-01 04:25:23 51°15.374 2°51.753 -999 16 9.9 102490 68
2006-06-01 04:25:29 51°15.381 2°51.722 -999 18 9.9 102490 68
2006-06-01 04:25:33 51°15.385 2°51.702 -999 21 9.9 102480 68
2006-06-01 04:25:37 51°15.389 2°51.684 -999 24 9.9 102480 68
2006-06-01 04:25:43 51°15.394 2°51.656 -999 22 9.9 102480 68
2006-06-01 04:25:49 51°15.4 2°51.626 -999 23 9.9 102480 68
2006-06-01 04:25:53 51°15.404 2°51.608 -999 27 9.9 102490 68
2006-06-01 04:25:59 51°15.409 2°51.576 -999 28 9.9 102490 68
2006-06-01 04:26:03 51°15.414 2°51.558 -999 24 9.9 102470 68
2006-06-01 04:26:09 51°15.42 2°51.529 -999 25 9.9 102470 68
2006-06-01 04:26:13 51°15.423 2°51.51 -999 28 9.9 102480 68
2006-06-01 04:26:19 51°15.43 2°51.481 -999 24 9.9 102480 68
2006-06-01 04:26:23 51°15.434 2°51.462 -999 27 9.9 102480 68
2006-06-01 04:26:29 51°15.44 2°51.432 -999 24 9.9 102480 68
2006-06-01 04:26:33 51°15.443 2°51.413 -999 25 9.9 102480 68
2006-06-01 04:26:39 51°15.449 2°51.384 -999 31 9.9 102480 68
2006-06-01 04:26:43 51°15.453 2°51.364 -999 32 9.9 102470 69
2006-06-01 04:26:49 51°15.459 2°51.336 -999 31 9.9 102470 69
2006-06-01 04:26:53 51°15.464 2°51.316 -999 24 9.9 102490 69
2006-06-01 04:26:59 51°15.47 2°51.288 -999 26 9.9 102490 69
2006-06-01 04:27:03 51°15.474 2°51.268 -999 27 9.9 102460 68
2006-06-01 04:27:09 51°15.48 2°51.239 -999 31 9.9 102460 68
2006-06-01 04:27:13 51°15.484 2°51.219 -999 25 9.9 102460 69
2006-06-01 04:27:17 51°15.489 2°51.201 -999 24 9.9 102460 69
2006-06-01 04:27:23 51°15.495 2°51.172 -999 26 9.9 102460 68
2006-06-01 04:27:29 51°15.501 2°51.143 -999 32 9.9 102460 68
2006-06-01 04:27:33 51°15.506 2°51.123 -999 32 9.9 102460 67
2006-06-01 04:27:39 51°15.513 2°51.095 -999 36 9.9 102460 67
2006-06-01 04:27:43 51°15.517 2°51.075 -999 31 9.9 102460 68
2006-06-01 04:27:49 51°15.523 2°51.046 -999 34 9.9 102460 68
2006-06-01 04:27:53 51°15.526 2°51.026 -999 31 9.9 102450 68
2006-06-01 04:27:59 51°15.532 2°50.997 -999 27 9.9 102450 68
2006-06-01 04:28:03 51°15.536 2°50.979 -999 23 9.9 102450 67
2006-06-01 04:28:09 51°15.543 2°50.949 -999 29 9.9 102450 67
2006-06-01 04:28:13 51°15.547 2°50.93 -999 32 9.9 102440 66
2006-06-01 04:28:19 51°15.554 2°50.902 -999 32 9.9 102440 66
2006-06-01 04:28:23 51°15.558 2°50.881 -999 29 9.9 102440 67
2006-06-01 04:28:29 51°15.564 2°50.852 -999 28 9.9 102440 67
2006-06-01 04:28:33 51°15.568 2°50.833 -999 28 9.9 102460 67
2006-06-01 04:28:39 51°15.574 2°50.805 -999 26 9.9 102460 67
2006-06-01 04:28:43 51°15.579 2°50.786 -999 29 9.9 102450 66
2006-06-01 04:28:49 51°15.585 2°50.756 -999 27 9.9 102450 66
2006-06-01 04:28:53 51°15.588 2°50.736 -999 22 9.9 102460 68
2006-06-01 04:28:59 51°15.595 2°50.707 -999 25 9.9 102460 68
2006-06-01 04:29:03 51°15.598 2°50.688 -999 24 9.9 102460 68
2006-06-01 04:29:09 51°15.604 2°50.659 -999 22 9.9 102460 68
2006-06-01 04:29:13 51°15.609 2°50.639 -999 27 9.9 102450 67
2006-06-01 04:29:19 51°15.616 2°50.612 -999 24 9.9 102450 67
2006-06-01 04:29:23 51°15.621 2°50.591 -999 27 9.9 102460 67
2006-06-01 04:29:29 51°15.627 2°50.563 -999 23 9.9 102460 67
2006-06-01 04:29:33 51°15.632 2°50.543 -999 26 9.9 102460 67
2006-06-01 04:29:39 51°15.638 2°50.515 -999 21 9.9 102460 67
2006-06-01 04:29:43 51°15.642 2°50.496 -999 24 9.9 102450 67
2006-06-01 04:29:49 51°15.648 2°50.465 -999 26 9.9 102450 67
2006-06-01 04:29:54 51°15.653 2°50.444 -999 24 9.9 102450 68
2006-06-01 04:29:59 51°15.659 2°50.418 -999 23 9.9 102450 68
2006-06-01 04:30:03 51°15.663 2°50.4 -999 29 9.9 102460 68
2006-06-01 04:30:09 51°15.67 2°50.371 -999 34 9.9 102460 68
2006-06-01 04:30:13 51°15.673 2°50.352 -999 27 9.9 102470 67
2006-06-01 04:30:19 51°15.679 2°50.323 -999 27 9.9 102470 67
2006-06-01 04:30:23 51°15.684 2°50.304 -999 30 9.9 102470 69
2006-06-01 04:30:29 51°15.69 2°50.276 -999 32 9.9 102470 69
2006-06-01 04:30:33 51°15.694 2°50.257 -999 28 10 102460 69
2006-06-01 04:30:39 51°15.701 2°50.227 -999 27 10 102460 69
2006-06-01 04:30:43 51°15.705 2°50.208 -999 33 9.9 102450 68
2006-06-01 04:30:49 51°15.711 2°50.18 -999 28 9.9 102450 68
2006-06-01 04:30:53 51°15.715 2°50.161 -999 38 9.9 102440 67
2006-06-01 04:30:58 51°15.718 2°50.136 -999 28 9.9 102440 67
2006-06-01 04:31:03 51°15.723 2°50.112 -999 35 9.9 102450 66
2006-06-01 04:31:09 51°15.727 2°50.082 -999 24 9.9 102450 66
2006-06-01 04:31:13 51°15.733 2°50.063 -999 27 9.9 102440 67
2006-06-01 04:31:19 51°15.737 2°50.034 -999 29 9.9 102440 67
2006-06-01 04:31:23 51°15.741 2°50.015 -999 25 9.9 102450 68
2006-06-01 04:31:29 51°15.746 2°49.985 -999 27 9.9 102450 68
2006-06-01 04:31:33 51°15.751 2°49.967 -999 28 9.9 102460 69
2006-06-01 04:31:39 51°15.756 2°49.936 -999 29 9.9 102460 69
2006-06-01 04:31:43 51°15.76 2°49.916 -999 36 9.9 102460 68
2006-06-01 04:31:49 51°15.766 2°49.887 -999 33 9.9 102460 68
2006-06-01 04:31:53 51°15.77 2°49.867 -999 31 9.9 102460 68
2006-06-01 04:31:57 51°15.774 2°49.848 -999 30 9.9 102460 68
2006-06-01 04:32:03 51°15.781 2°49.818 -999 24 9.9 102450 67
2006-06-01 04:32:09 51°15.787 2°49.79 -999 23 9.9 102450 67
2006-06-01 04:32:14 51°15.792 2°49.765 -999 28 9.9 102450 68
2006-06-01 04:32:19 51°15.796 2°49.741 -999 27 9.9 102450 68
2006-06-01 04:32:24 51°15.8 2°49.715 -999 26 9.9 102450 68
2006-06-01 04:32:29 51°15.806 2°49.69 -999 30 9.9 102450 68
2006-06-01 04:32:33 51°15.809 2°49.67 -999 26 9.9 102460 67
2006-06-01 04:32:39 51°15.815 2°49.642 -999 24 9.9 102460 67
2006-06-01 04:32:43 51°15.818 2°49.623 -999 22 9.9 102460 66
2006-06-01 04:32:49 51°15.824 2°49.592 -999 24 9.9 102460 66
2006-06-01 04:32:53 51°15.828 2°49.573 -999 18 9.9 102460 66
2006-06-01 04:32:59 51°15.834 2°49.542 -999 27 9.9 102460 66
2006-06-01 04:33:03 51°15.839 2°49.522 -999 28 9.9 102470 67
2006-06-01 04:33:09 51°15.845 2°49.493 -999 25 9.9 102470 67
2006-06-01 04:33:14 51°15.851 2°49.468 -999 24 9.9 102460 67
2006-06-01 04:33:19 51°15.856 2°49.443 -999 24 9.9 102460 67
2006-06-01 04:33:24 51°15.861 2°49.418 -999 24 9.9 102460 67
2006-06-01 04:33:29 51°15.866 2°49.393 -999 29 9.9 102460 67
2006-06-01 04:33:33 51°15.87 2°49.374 -999 25 9.9 102460 68
2006-06-01 04:33:39 51°15.876 2°49.345 -999 21 9.9 102460 68
2006-06-01 04:33:43 51°15.881 2°49.326 -999 24 9.9 102470 68
2006-06-01 04:33:49 51°15.887 2°49.296 -999 23 9.9 102470 68
2006-06-01 04:33:53 51°15.891 2°49.277 -999 25 10 102470 68
2006-06-01 04:33:59 51°15.897 2°49.247 -999 27 10 102470 68
2006-06-01 04:34:04 51°15.902 2°49.223 -999 27 9.9 102470 68
2006-06-01 04:34:08 51°15.905 2°49.203 -999 26 9.9 102470 68
2006-06-01 04:34:13 51°15.911 2°49.179 -999 26 9.9 102460 68
2006-06-01 04:34:19 51°15.916 2°49.149 -999 27 9.9 102460 68
2006-06-01 04:34:23 51°15.92 2°49.13 -999 24 9.9 102460 67
2006-06-01 04:34:29 51°15.926 2°49.101 -999 27 9.9 102460 67
2006-06-01 04:34:33 51°15.93 2°49.08 -999 24 9.9 102460 67
2006-06-01 04:34:39 51°15.935 2°49.051 -999 27 9.9 102460 67
2006-06-01 04:34:44 51°15.94 2°49.027 -999 24 9.9 102460 67
2006-06-01 04:34:48 51°15.945 2°49.008 -999 25 9.9 102460 67
2006-06-01 04:34:53 51°15.949 2°48.985 -999 26 9.8 102460 66
2006-06-01 04:34:59 51°15.955 2°48.954 -999 25 9.8 102460 66
2006-06-01 04:35:03 51°15.959 2°48.935 -999 27 9.8 102470 65
2006-06-01 04:35:09 51°15.965 2°48.906 -999 22 9.8 102470 65
2006-06-01 04:35:13 51°15.97 2°48.887 -999 24 9.9 102460 66
2006-06-01 04:35:18 51°15.975 2°48.863 -999 23 9.9 102460 66
2006-06-01 04:35:23 51°15.979 2°48.837 -999 24 9.9 102460 66
2006-06-01 04:35:29 51°15.985 2°48.808 -999 23 9.9 102460 66
2006-06-01 04:35:33 51°15.989 2°48.789 -999 28 9.8 102460 65
2006-06-01 04:35:39 51°15.996 2°48.759 -999 28 9.8 102460 65
2006-06-01 04:35:43 51°15.999 2°48.739 -999 26 9.9 102460 66
2006-06-01 04:35:49 51°16.005 2°48.711 -999 23 9.9 102460 66
2006-06-01 04:35:53 51°16.009 2°48.691 -999 27 9.9 102460 67
2006-06-01 04:35:59 51°16.014 2°48.661 -999 27 9.9 102460 67
2006-06-01 04:36:03 51°16.019 2°48.642 -999 27 9.9 102460 67
2006-06-01 04:36:09 51°16.025 2°48.613 -999 29 9.9 102460 67
2006-06-01 04:36:13 51°16.029 2°48.592 -999 30 9.9 102460 67
2006-06-01 04:36:19 51°16.034 2°48.564 -999 27 9.9 102460 67
2006-06-01 04:36:23 51°16.039 2°48.545 -999 28 9.8 102460 66
2006-06-01 04:36:29 51°16.044 2°48.515 -999 22 9.8 102460 66
2006-06-01 04:36:33 51°16.049 2°48.495 -999 22 9.8 102460 66
2006-06-01 04:36:38 51°16.054 2°48.471 -999 26 9.8 102460 66
2006-06-01 04:36:43 51°16.059 2°48.448 -999 33 9.9 102470 66
2006-06-01 04:36:49 51°16.065 2°48.418 -999 26 9.9 102470 66
2006-06-01 04:36:53 51°16.068 2°48.399 -999 27 9.9 102460 67
2006-06-01 04:36:58 51°16.073 2°48.375 -999 28 9.9 102460 67
2006-06-01 04:37:04 51°16.079 2°48.346 -999 32 9.9 102470 68
2006-06-01 04:37:09 51°16.083 2°48.321 -999 28 9.9 102470 68
2006-06-01 04:37:13 51°16.087 2°48.302 -999 29 9.9 102470 69
2006-06-01 04:37:19 51°16.092 2°48.272 -999 21 9.9 102470 69
2006-06-01 04:37:23 51°16.097 2°48.254 -999 26 10 102460 68
2006-06-01 04:37:29 51°16.102 2°48.223 -999 27 10 102460 68
2006-06-01 04:37:34 51°16.107 2°48.2 -999 27 9.9 102450 67
2006-06-01 04:37:39 51°16.112 2°48.176 -999 26 9.9 102450 67
2006-06-01 04:37:44 51°16.116 2°48.152 -999 26 9.9 102450 67
2006-06-01 04:37:48 51°16.119 2°48.133 -999 21 9.9 102450 67
2006-06-01 04:37:54 51°16.125 2°48.103 -999 21 9.9 102460 67
2006-06-01 04:37:59 51°16.131 2°48.079 -999 26 9.9 102460 67
2006-06-01 04:38:03 51°16.134 2°48.059 -999 22 9.9 102460 66
2006-06-01 04:38:09 51°16.141 2°48.031 -999 28 9.9 102460 66
2006-06-01 04:38:13 51°16.144 2°48.01 -999 27 9.9 102460 66
2006-06-01 04:38:19 51°16.151 2°47.981 -999 26 9.9 102460 66
2006-06-01 04:38:23 51°16.155 2°47.961 -999 25 9.8 102470 65
2006-06-01 04:38:29 51°16.161 2°47.934 -999 30 9.8 102470 65
2006-06-01 04:38:33 51°16.165 2°47.915 -999 23 9.8 102470 65
2006-06-01 04:38:39 51°16.171 2°47.886 -999 18 9.8 102470 65
2006-06-01 04:38:41 51°16.173 2°47.877 -999 24 9.8 102470 66
2006-06-01 04:38:49 51°16.182 2°47.838 -999 20 9.8 102470 66
2006-06-01 04:38:53 51°16.187 2°47.82 -999 26 9.8 102470 67
2006-06-01 04:38:59 51°16.193 2°47.789 -999 26 9.8 102470 67
2006-06-01 04:39:03 51°16.197 2°47.771 -999 31 9.9 102480 67
2006-06-01 04:39:09 51°16.203 2°47.742 -999 25 9.9 102480 67
2006-06-01 04:39:13 51°16.207 2°47.723 -999 21 9.9 102480 67
2006-06-01 04:39:19 51°16.213 2°47.694 -999 22 9.9 102480 67
2006-06-01 04:39:24 51°16.218 2°47.671 -999 19 9.9 102480 66
2006-06-01 04:39:29 51°16.224 2°47.646 -999 21 9.9 102480 66
2006-06-01 04:39:33 51°16.228 2°47.627 -999 23 9.8 102470 66
2006-06-01 04:39:39 51°16.233 2°47.598 -999 22 9.8 102470 66
2006-06-01 04:39:43 51°16.237 2°47.58 -999 19 9.9 102480 67
2006-06-01 04:39:48 51°16.242 2°47.555 -999 26 9.9 102480 67
2006-06-01 04:39:53 51°16.246 2°47.531 -999 24 9.9 102480 68
2006-06-01 04:39:59 51°16.252 2°47.502 -999 31 9.9 102480 68
2006-06-01 04:40:03 51°16.255 2°47.484 -999 26 9.9 102480 68
2006-06-01 04:40:09 51°16.26 2°47.455 -999 25 9.9 102480 68
2006-06-01 04:40:13 51°16.264 2°47.436 -999 24 9.9 102480 67
2006-06-01 04:40:19 51°16.269 2°47.406 -999 30 9.9 102480 67
2006-06-01 04:40:23 51°16.273 2°47.387 -999 31 9.9 102470 68
2006-06-01 04:40:29 51°16.278 2°47.359 -999 26 9.9 102470 68
2006-06-01 04:40:33 51°16.282 2°47.339 -999 28 9.9 102470 68
2006-06-01 04:40:39 51°16.287 2°47.311 -999 30 9.9 102470 68
2006-06-01 04:40:43 51°16.291 2°47.292 -999 27 9.9 102470 67
2006-06-01 04:40:49 51°16.296 2°47.262 -999 26 9.9 102470 67
2006-06-01 04:40:53 51°16.299 2°47.243 -999 31 9.9 102460 67
2006-06-01 04:40:58 51°16.304 2°47.219 -999 27 9.9 102460 67
2006-06-01 04:41:03 51°16.309 2°47.195 -999 36 9.9 102470 66
2006-06-01 04:41:09 51°16.314 2°47.167 -999 31 9.9 102470 66
2006-06-01 04:41:13 51°16.317 2°47.147 -999 28 9.9 102460 66
2006-06-01 04:41:19 51°16.323 2°47.117 -999 28 9.9 102460 66
2006-06-01 04:41:23 51°16.327 2°47.098 -999 24 9.9 102460 67
2006-06-01 04:41:29 51°16.332 2°47.068 -999 26 9.9 102460 67
2006-06-01 04:41:33 51°16.336 2°47.049 -999 22 9.9 102460 65
2006-06-01 04:41:39 51°16.342 2°47.019 -999 33 9.9 102460 65
2006-06-01 04:41:43 51°16.346 2°47 -999 33 9.9 102470 66
2006-06-01 04:41:49 51°16.352 2°46.971 -999 32 9.9 102470 66
2006-06-01 04:41:53 51°16.355 2°46.953 -999 31 9.9 102470 65
2006-06-01 04:41:57 51°16.359 2°46.932 -999 33 9.9 102470 65
2006-06-01 04:42:03 51°16.365 2°46.903 -999 38 9.9 102470 66
2006-06-01 04:42:09 51°16.37 2°46.874 -999 33 9.9 102470 66
2006-06-01 04:42:13 51°16.374 2°46.854 -999 26 9.9 102470 66
2006-06-01 04:42:19 51°16.38 2°46.824 -999 30 9.9 102470 66
2006-06-01 04:42:24 51°16.384 2°46.8 -999 24 9.9 102470 65
2006-06-01 04:42:28 51°16.388 2°46.78 -999 25 9.9 102470 65
2006-06-01 04:42:33 51°16.392 2°46.755 -999 26 9.9 102460 66
2006-06-01 04:42:39 51°16.398 2°46.726 -999 25 9.9 102460 66
2006-06-01 04:42:44 51°16.404 2°46.702 -999 24 9.9 102480 66
2006-06-01 04:42:48 51°16.406 2°46.682 -999 31 9.9 102480 66
2006-06-01 04:42:53 51°16.411 2°46.659 -999 20 9.9 102480 66
2006-06-01 04:42:59 51°16.418 2°46.629 -999 26 9.9 102480 66
2006-06-01 04:43:04 51°16.423 2°46.604 -999 23 9.9 102480 65
2006-06-01 04:43:09 51°16.428 2°46.58 -999 26 9.9 102480 65
2006-06-01 04:43:13 51°16.431 2°46.56 -999 21 9.9 102480 65
2006-06-01 04:43:19 51°16.438 2°46.531 -999 28 9.9 102480 65
2006-06-01 04:43:24 51°16.442 2°46.505 -999 23 9.9 102480 66
2006-06-01 04:43:29 51°16.446 2°46.481 -999 27 9.9 102480 66
2006-06-01 04:43:33 51°16.45 2°46.461 -999 26 10 102470 67
2006-06-01 04:43:39 51°16.456 2°46.433 -999 25 10 102470 67
2006-06-01 04:43:43 51°16.459 2°46.412 -999 22 10 102480 67
2006-06-01 04:43:49 51°16.465 2°46.384 -999 26 10 102480 67
2006-06-01 04:43:53 51°16.468 2°46.363 -999 24 9.9 102470 66
2006-06-01 04:43:56 51°16.472 2°46.349 -999 26 9.9 102470 66
2006-06-01 04:44:03 51°16.478 2°46.314 -999 27 10 102470 66
2006-06-01 04:44:09 51°16.484 2°46.286 -999 32 10 102470 66
2006-06-01 04:44:13 51°16.487 2°46.265 -999 25 10 102470 65
2006-06-01 04:44:19 51°16.493 2°46.236 -999 28 10 102470 65
2006-06-01 04:44:23 51°16.496 2°46.216 -999 27 10 102470 66
2006-06-01 04:44:28 51°16.501 2°46.193 -999 28 10 102470 66
2006-06-01 04:44:33 51°16.506 2°46.167 -999 27 10 102470 65
2006-06-01 04:44:39 51°16.511 2°46.137 -999 25 10 102470 65
2006-06-01 04:44:44 51°16.515 2°46.113 -999 27 10 102470 65
2006-06-01 04:44:48 51°16.519 2°46.092 -999 29 10 102470 65
2006-06-01 04:44:53 51°16.524 2°46.067 -999 27 10 102470 67
2006-06-01 04:44:59 51°16.53 2°46.038 -999 29 10 102470 67
2006-06-01 04:45:03 51°16.533 2°46.017 -999 30 10 102470 66
2006-06-01 04:45:09 51°16.539 2°45.988 -999 28 10 102470 66
2006-06-01 04:45:13 51°16.543 2°45.967 -999 24 10 102470 66
2006-06-01 04:45:19 51°16.549 2°45.939 -999 26 10 102470 66
2006-06-01 04:45:23 51°16.553 2°45.919 -999 25 10 102470 65
2006-06-01 04:45:29 51°16.559 2°45.89 -999 23 10 102470 65
2006-06-01 04:45:33 51°16.564 2°45.869 -999 24 10 102470 65
2006-06-01 04:45:39 51°16.571 2°45.84 -999 25 10 102470 65
2006-06-01 04:45:43 51°16.575 2°45.82 -999 20 10 102470 66
2006-06-01 04:45:49 51°16.582 2°45.791 -999 25 10 102470 66
2006-06-01 04:45:53 51°16.586 2°45.771 -999 27 10 102480 65
2006-06-01 04:45:59 51°16.592 2°45.742 -999 24 10 102480 65
2006-06-01 04:46:04 51°16.598 2°45.717 -999 26 10 102480 66
2006-06-01 04:46:08 51°16.603 2°45.698 -999 28 10 102480 66
2006-06-01 04:46:13 51°16.607 2°45.672 -999 23 10 102480 66
2006-06-01 04:46:19 51°16.614 2°45.642 -999 27 10 102480 66
2006-06-01 04:46:23 51°16.619 2°45.623 -999 23 10 102460 66
2006-06-01 04:46:28 51°16.625 2°45.599 -999 27 10 102460 66
2006-06-01 04:46:33 51°16.63 2°45.574 -999 24 10 102470 66
2006-06-01 04:46:39 51°16.637 2°45.546 -999 25 10 102470 66
2006-06-01 04:46:44 51°16.643 2°45.521 -999 30 10 102480 66
2006-06-01 04:46:48 51°16.647 2°45.501 -999 29 10 102480 66
2006-06-01 04:46:54 51°16.654 2°45.471 -999 23 10 102480 65
2006-06-01 04:46:59 51°16.661 2°45.447 -999 28 10 102480 65
2006-06-01 04:47:04 51°16.667 2°45.422 -999 26 10 102480 65
2006-06-01 04:47:08 51°16.671 2°45.402 -999 26 10 102480 65
2006-06-01 04:47:13 51°16.677 2°45.378 -999 28 10 102470 65
2006-06-01 04:47:19 51°16.684 2°45.348 -999 33 10 102470 65
2006-06-01 04:47:23 51°16.689 2°45.329 -999 27 10 102480 65
2006-06-01 04:47:29 51°16.696 2°45.3 -999 26 10 102480 65
2006-06-01 04:47:33 51°16.702 2°45.281 -999 25 10 102480 66
2006-06-01 04:47:39 51°16.71 2°45.252 -999 25 10 102480 66
2006-06-01 04:47:44 51°16.716 2°45.227 -999 28 10 102480 67
2006-06-01 04:47:49 51°16.723 2°45.204 -999 27 10 102480 67
2006-06-01 04:47:53 51°16.729 2°45.183 -999 21 10 102480 67
2006-06-01 04:47:59 51°16.737 2°45.154 -999 23 10 102480 67
2006-06-01 04:48:04 51°16.743 2°45.131 -999 20 10 102470 66
2006-06-01 04:48:08 51°16.749 2°45.111 -999 18 10 102470 66
2006-06-01 04:48:13 51°16.756 2°45.086 -999 16 10 102460 65
2006-06-01 04:48:19 51°16.765 2°45.06 -999 18 10 102460 65
2006-06-01 04:48:24 51°16.773 2°45.035 -999 17 10 102480 65
2006-06-01 04:48:29 51°16.782 2°45.012 -999 17 10 102480 65
2006-06-01 04:48:33 51°16.788 2°44.994 -999 19 10 102480 65
2006-06-01 04:48:39 51°16.799 2°44.965 -999 13 10 102480 65
2006-06-01 04:48:44 51°16.808 2°44.943 -999 19 10 102480 65
2006-06-01 04:48:48 51°16.814 2°44.924 -999 16 10 102480 65
2006-06-01 04:48:54 51°16.826 2°44.896 -999 14 10 102480 64
2006-06-01 04:48:59 51°16.834 2°44.873 -999 21 10 102480 64
2006-06-01 04:49:04 51°16.844 2°44.85 -999 20 10 102480 65
2006-06-01 04:49:08 51°16.851 2°44.832 -999 20 10 102480 65
2006-06-01 04:49:13 51°16.86 2°44.809 -999 18 10 102480 65
2006-06-01 04:49:19 51°16.871 2°44.782 -999 20 10 102480 65
2006-06-01 04:49:23 51°16.879 2°44.764 -999 24 10 102480 64
2006-06-01 04:49:29 51°16.89 2°44.736 -999 25 10 102480 64
2006-06-01 04:49:33 51°16.897 2°44.717 -999 19 10 102480 64
2006-06-01 04:49:39 51°16.908 2°44.69 -999 20 10 102480 64
2006-06-01 04:49:44 51°16.916 2°44.667 -999 27 10 102480 64
2006-06-01 04:49:49 51°16.925 2°44.643 -999 22 10 102480 64
2006-06-01 04:49:53 51°16.932 2°44.624 -999 23 10 102480 65
2006-06-01 04:49:59 51°16.943 2°44.597 -999 21 10 102480 65
2006-06-01 04:50:03 51°16.95 2°44.579 -999 23 10 102480 66
2006-06-01 04:50:09 51°16.961 2°44.551 -999 21 10 102480 66
2006-06-01 04:50:13 51°16.968 2°44.532 -999 22 10 102480 66
2006-06-01 04:50:19 51°16.978 2°44.504 -999 22 10 102480 66
2006-06-01 04:50:23 51°16.986 2°44.486 -999 14 10 102490 67
2006-06-01 04:50:29 51°16.996 2°44.459 -999 20 10 102490 67
2006-06-01 04:50:32 51°17.001 2°44.445 -999 24 10.1 102480 66
2006-06-01 04:50:39 51°17.013 2°44.413 -999 24 10.1 102480 66
2006-06-01 04:50:43 51°17.021 2°44.394 -999 25 10.1 102480 66
2006-06-01 04:50:49 51°17.031 2°44.367 -999 25 10.1 102480 66
2006-06-01 04:50:53 51°17.038 2°44.348 -999 25 10.1 102480 66
2006-06-01 04:50:57 51°17.045 2°44.329 -999 28 10.1 102480 66
2006-06-01 04:51:03 51°17.056 2°44.302 -999 21 10.1 102480 65
2006-06-01 04:51:09 51°17.066 2°44.275 -999 22 10.1 102480 65
2006-06-01 04:51:13 51°17.073 2°44.258 -999 23 10.1 102480 67
2006-06-01 04:51:19 51°17.084 2°44.229 -999 25 10.1 102480 67
2006-06-01 04:51:23 51°17.09 2°44.211 -999 18 10.1 102480 66
2006-06-01 04:51:29 51°17.101 2°44.183 -999 19 10.1 102480 66
2006-06-01 04:51:34 51°17.109 2°44.16 -999 18 10.1 102480 65
2006-06-01 04:51:39 51°17.119 2°44.138 -999 23 10.1 102480 65
2006-06-01 04:51:43 51°17.125 2°44.119 -999 23 10.1 102480 65
2006-06-01 04:51:48 51°17.134 2°44.095 -999 22 10.1 102480 65
2006-06-01 04:51:54 51°17.144 2°44.067 -999 19 10.1 102480 64
2006-06-01 04:51:59 51°17.154 2°44.045 -999 20 10.1 102480 64
2006-06-01 04:52:04 51°17.163 2°44.023 -999 21 10.1 102480 64
2006-06-01 04:52:08 51°17.17 2°44.003 -999 23 10.1 102480 64
2006-06-01 04:52:14 51°17.179 2°43.977 -999 17 10.1 102490 64
2006-06-01 04:52:19 51°17.189 2°43.954 -999 18 10.1 102490 64
2006-06-01 04:52:24 51°17.197 2°43.93 -999 20 10.1 102480 65
2006-06-01 04:52:28 51°17.204 2°43.912 -999 19 10.1 102480 65
2006-06-01 04:52:33 51°17.213 2°43.889 -999 13 10.1 102480 65
2006-06-01 04:52:39 51°17.223 2°43.862 -999 13 10.1 102480 65
2006-06-01 04:52:44 51°17.232 2°43.84 -999 19 10.1 102480 66
2006-06-01 04:52:49 51°17.241 2°43.816 -999 20 10.1 102480 66
2006-06-01 04:52:53 51°17.248 2°43.797 -999 17 10.1 102480 65
2006-06-01 04:52:59 51°17.258 2°43.769 -999 11 10.1 102480 65
2006-06-01 04:53:04 51°17.267 2°43.747 -999 15 10.1 102490 66
2006-06-01 04:53:09 51°17.276 2°43.724 -999 14 10.1 102490 66
2006-06-01 04:53:13 51°17.282 2°43.705 -999 10 10.1 102480 65
2006-06-01 04:53:19 51°17.293 2°43.678 -999 13 10.1 102480 65
2006-06-01 04:53:23 51°17.299 2°43.659 -999 12 10.1 102490 66
2006-06-01 04:53:29 51°17.31 2°43.631 -999 15 10.1 102490 66
2006-06-01 04:53:33 51°17.317 2°43.611 -999 15 10.1 102480 65
2006-06-01 04:53:39 51°17.328 2°43.585 -999 14 10.1 102480 65
2006-06-01 04:53:44 51°17.335 2°43.562 -999 17 10 102490 65
2006-06-01 04:53:48 51°17.342 2°43.544 -999 17 10 102490 65
2006-06-01 04:53:54 51°17.352 2°43.515 -999 17 10 102490 65
2006-06-01 04:53:59 51°17.362 2°43.493 -999 14 10 102490 65
2006-06-01 04:54:04 51°17.371 2°43.468 -999 16 10 102480 65
2006-06-01 04:54:09 51°17.38 2°43.446 -999 19 10 102480 65
2006-06-01 04:54:13 51°17.387 2°43.428 -999 15 10 102480 66
2006-06-01 04:54:19 51°17.398 2°43.401 -999 25 10 102480 66
2006-06-01 04:54:23 51°17.403 2°43.381 -999 17 10.1 102480 66
2006-06-01 04:54:29 51°17.414 2°43.355 -999 24 10.1 102480 66
2006-06-01 04:54:33 51°17.421 2°43.336 -999 21 10 102490 66
2006-06-01 04:54:39 51°17.432 2°43.31 -999 25 10 102490 66
2006-06-01 04:54:44 51°17.44 2°43.288 -999 25 10.1 102490 66
2006-06-01 04:54:48 51°17.448 2°43.269 -999 18 10.1 102490 66
2006-06-01 04:54:53 51°17.457 2°43.246 -999 15 10.1 102480 66
2006-06-01 04:54:59 51°17.468 2°43.22 -999 15 10.1 102480 66
2006-06-01 04:55:04 51°17.477 2°43.197 -999 11 10.1 102480 66
2006-06-01 04:55:09 51°17.486 2°43.175 -999 12 10.1 102480 66
2006-06-01 04:55:13 51°17.494 2°43.158 -999 14 10.1 102470 67
2006-06-01 04:55:19 51°17.504 2°43.13 -999 12 10.1 102470 67
2006-06-01 04:55:23 51°17.512 2°43.112 -999 15 10.1 102490 69
2006-06-01 04:55:29 51°17.522 2°43.085 -999 10 10.1 102490 69
2006-06-01 04:55:33 51°17.529 2°43.066 -999 14 10.1 102490 69
2006-06-01 04:55:39 51°17.539 2°43.04 -999 15 10.1 102490 69
2006-06-01 04:55:43 51°17.547 2°43.021 -999 18 10.1 102480 67
2006-06-01 04:55:49 51°17.557 2°42.995 -999 20 10.1 102480 67
2006-06-01 04:55:53 51°17.564 2°42.977 -999 17 10.1 102480 66
2006-06-01 04:55:58 51°17.573 2°42.955 -999 20 10.1 102480 66
2006-06-01 04:56:03 51°17.582 2°42.933 -999 19 10.1 102480 67
2006-06-01 04:56:09 51°17.594 2°42.906 -999 20 10.1 102480 67
2006-06-01 04:56:14 51°17.603 2°42.883 -999 25 10.1 102480 66
2006-06-01 04:56:19 51°17.611 2°42.859 -999 16 10.1 102480 66
2006-06-01 04:56:22 51°17.617 2°42.847 -999 25 10 102480 65
2006-06-01 04:56:29 51°17.629 2°42.812 -999 11 10 102480 65
2006-06-01 04:56:33 51°17.638 2°42.797 -999 22 10 102480 65
2006-06-01 04:56:38 51°17.647 2°42.775 -999 15 10 102480 65
2006-06-01 04:56:43 51°17.656 2°42.753 -999 14 10 102470 65
2006-06-01 04:56:49 51°17.667 2°42.726 -999 15 10 102470 65
2006-06-01 04:56:53 51°17.675 2°42.707 -999 17 10 102480 66
2006-06-01 04:56:59 51°17.685 2°42.682 -999 13 10 102480 66
2006-06-01 04:57:04 51°17.695 2°42.659 -999 19 10 102480 66
2006-06-01 04:57:09 51°17.703 2°42.635 -999 13 10 102480 66
2006-06-01 04:57:13 51°17.712 2°42.62 -999 19 10 102490 66
2006-06-01 04:57:19 51°17.723 2°42.59 -999 19 10 102490 66
2006-06-01 04:57:23 51°17.73 2°42.574 -999 16 10 102480 65
2006-06-01 04:57:29 51°17.741 2°42.546 -999 19 10 102480 65
2006-06-01 04:57:33 51°17.748 2°42.529 -999 18 10 102490 66
2006-06-01 04:57:39 51°17.758 2°42.5 -999 17 10 102490 66
2006-06-01 04:57:44 51°17.766 2°42.477 -999 18 10 102480 66
2006-06-01 04:57:49 51°17.775 2°42.453 -999 14 10 102480 66
2006-06-01 04:57:52 51°17.78 2°42.439 -999 9 10 102480 65
2006-06-01 04:57:57 51°17.788 2°42.416 -999 14 10 102480 65
2006-06-01 04:58:03 51°17.799 2°42.388 -999 12 10 102480 66
2006-06-01 04:58:09 51°17.809 2°42.36 -999 15 10 102480 66
2006-06-01 04:58:13 51°17.816 2°42.342 -999 17 10 102490 67
2006-06-01 04:58:19 51°17.826 2°42.314 -999 15 10 102490 67
2006-06-01 04:58:24 51°17.835 2°42.29 -999 15 10 102500 66
2006-06-01 04:58:29 51°17.843 2°42.267 -999 21 10 102500 66
2006-06-01 04:58:33 51°17.85 2°42.249 -999 14 10 102490 65
2006-06-01 04:58:39 51°17.861 2°42.221 -999 19 10 102490 65
2006-06-01 04:58:43 51°17.867 2°42.203 -999 18 10 102480 65
2006-06-01 04:58:49 51°17.878 2°42.177 -999 16 10 102480 65
2006-06-01 04:58:53 51°17.885 2°42.159 -999 16 10 102490 66
2006-06-01 04:58:59 51°17.895 2°42.132 -999 18 10 102490 66
2006-06-01 04:59:03 51°17.902 2°42.113 -999 17 10 102490 65
2006-06-01 04:59:09 51°17.913 2°42.085 -999 15 10 102490 65
2006-06-01 04:59:13 51°17.92 2°42.066 -999 12 10 102480 65
2006-06-01 04:59:17 51°17.926 2°42.047 -999 21 10 102480 65
2006-06-01 04:59:23 51°17.937 2°42.02 -999 15 10 102480 66
2006-06-01 04:59:28 51°17.946 2°41.997 -999 14 10 102480 66
2006-06-01 04:59:33 51°17.955 2°41.975 -999 16 10 102480 66
2006-06-01 04:59:39 51°17.965 2°41.946 -999 14 10 102480 66
2006-06-01 04:59:43 51°17.972 2°41.928 -999 11 10.1 102490 67
2006-06-01 04:59:49 51°17.982 2°41.901 -999 15 10.1 102490 67
2006-06-01 04:59:53 51°17.989 2°41.882 -999 18 10.1 102500 67
2006-06-01 04:59:56 51°17.994 2°41.868 -999 22 10.1 102500 67
2006-06-01 05:00:03 51°18.006 2°41.836 -999 10 10.1 102490 68
2006-06-01 05:00:09 51°18.018 2°41.808 -999 10 10.1 102490 68
2006-06-01 05:00:13 51°18.024 2°41.789 -999 13 10.1 102490 67
2006-06-01 05:00:19 51°18.036 2°41.761 -999 16 10.1 102490 67
2006-06-01 05:00:23 51°18.042 2°41.742 -999 19 10.1 102490 67
2006-06-01 05:00:29 51°18.053 2°41.715 -999 18 10.1 102490 67
2006-06-01 05:00:34 51°18.062 2°41.693 -999 20 10.1 102490 66
2006-06-01 05:00:39 51°18.071 2°41.669 -999 23 10.1 102490 66
2006-06-01 05:00:42 51°18.075 2°41.655 -999 16 10.1 102490 66
2006-06-01 05:00:48 51°18.086 2°41.627 -999 20 10.1 102490 66
2006-06-01 05:00:53 51°18.095 2°41.604 -999 19 10.1 102490 66
2006-06-01 05:00:59 51°18.105 2°41.577 -999 20 10.1 102490 66
2006-06-01 05:01:03 51°18.111 2°41.558 -999 20 10 102490 66
2006-06-01 05:01:08 51°18.12 2°41.535 -999 18 10 102490 66
2006-06-01 05:01:13 51°18.129 2°41.512 -999 21 10 102490 66
2006-06-01 05:01:19 51°18.139 2°41.484 -999 24 10 102490 66
2006-06-01 05:01:23 51°18.146 2°41.465 -999 21 10 102490 66
2006-06-01 05:01:29 51°18.157 2°41.438 -999 15 10 102490 66
2006-06-01 05:01:32 51°18.162 2°41.423 -999 18 10 102490 65
2006-06-01 05:01:39 51°18.174 2°41.394 -999 13 10 102490 65
2006-06-01 05:01:43 51°18.181 2°41.375 -999 15 10 102490 65
2006-06-01 05:01:49 51°18.191 2°41.346 -999 12 10 102490 65
2006-06-01 05:01:53 51°18.199 2°41.329 -999 13 10 102480 66
2006-06-01 05:01:59 51°18.209 2°41.301 -999 12 10 102480 66
2006-06-01 05:02:04 51°18.217 2°41.279 -999 17 10 102480 66
2006-06-01 05:02:09 51°18.226 2°41.256 -999 17 10 102480 66
2006-06-01 05:02:13 51°18.233 2°41.236 -999 11 10 102490 65
2006-06-01 05:02:19 51°18.244 2°41.21 -999 15 10 102490 65
2006-06-01 05:02:23 51°18.251 2°41.191 -999 17 10 102490 66
2006-06-01 05:02:29 51°18.262 2°41.163 -999 18 10 102490 66
2006-06-01 05:02:33 51°18.269 2°41.144 -999 20 10 102490 66
2006-06-01 05:02:39 51°18.279 2°41.118 -999 17 10 102490 66
2006-06-01 05:02:43 51°18.286 2°41.1 -999 20 10 102480 66
2006-06-01 05:02:48 51°18.294 2°41.076 -999 19 10 102480 66
2006-06-01 05:02:53 51°18.303 2°41.055 -999 13 10 102480 66
2006-06-01 05:02:59 51°18.313 2°41.026 -999 19 10 102480 66
2006-06-01 05:03:03 51°18.321 2°41.009 -999 18 10.1 102480 67
2006-06-01 05:03:08 51°18.329 2°40.984 -999 20 10.1 102480 67
2006-06-01 05:03:13 51°18.339 2°40.962 -999 18 10 102490 67
2006-06-01 05:03:19 51°18.349 2°40.935 -999 18 10 102490 67
2006-06-01 05:03:23 51°18.356 2°40.916 -999 24 10 102480 66
2006-06-01 05:03:29 51°18.366 2°40.889 -999 17 10 102480 66
2006-06-01 05:03:33 51°18.373 2°40.871 -999 19 10 102480 65
2006-06-01 05:03:39 51°18.384 2°40.844 -999 25 10 102480 65
2006-06-01 05:03:44 51°18.393 2°40.821 -999 20 10 102480 64
2006-06-01 05:03:49 51°18.402 2°40.798 -999 22 10 102480 64
2006-06-01 05:03:53 51°18.409 2°40.78 -999 20 10 102480 64
2006-06-01 05:03:59 51°18.419 2°40.754 -999 18 10 102480 64
2006-06-01 05:04:03 51°18.426 2°40.734 -999 10 10 102480 65
2006-06-01 05:04:09 51°18.436 2°40.707 -999 14 10 102480 65
2006-06-01 05:04:13 51°18.443 2°40.688 -999 12 10 102490 64
2006-06-01 05:04:17 51°18.45 2°40.67 -999 14 10 102490 64
2006-06-01 05:04:23 51°18.461 2°40.642 -999 12 10 102490 65
2006-06-01 05:04:28 51°18.47 2°40.62 -999 8 10 102490 65
2006-06-01 05:04:33 51°18.48 2°40.597 -999 18 10 102510 65
2006-06-01 05:04:37 51°18.485 2°40.577 -999 14 10 102510 65
2006-06-01 05:04:43 51°18.497 2°40.551 -999 20 10 102490 65
2006-06-01 05:04:49 51°18.506 2°40.524 -999 14 10 102490 65
2006-06-01 05:04:53 51°18.514 2°40.506 -999 18 10 102480 65
2006-06-01 05:04:59 51°18.524 2°40.479 -999 15 10 102480 65
2006-06-01 05:05:03 51°18.531 2°40.461 -999 16 10 102480 65
2006-06-01 05:05:08 51°18.54 2°40.438 -999 16 10 102480 65
2006-06-01 05:05:13 51°18.549 2°40.418 -999 21 10 102490 65
2006-06-01 05:05:19 51°18.56 2°40.39 -999 22 10 102490 65
2006-06-01 05:05:23 51°18.567 2°40.372 -999 23 10 102480 65
2006-06-01 05:05:29 51°18.578 2°40.347 -999 28 10 102480 65
2006-06-01 05:05:33 51°18.585 2°40.329 -999 21 10 102490 64
2006-06-01 05:05:39 51°18.597 2°40.304 -999 14 10 102490 64
2006-06-01 05:05:43 51°18.603 2°40.287 -999 27 10 102480 63
2006-06-01 05:05:49 51°18.614 2°40.259 -999 21 10 102480 63
2006-06-01 05:05:53 51°18.621 2°40.242 -999 18 10 102480 63
2006-06-01 05:05:59 51°18.632 2°40.214 -999 24 10 102480 63
2006-06-01 05:06:04 51°18.641 2°40.192 -999 16 10 102480 64
2006-06-01 05:06:09 51°18.65 2°40.17 -999 18 10 102480 64
2006-06-01 05:06:13 51°18.658 2°40.152 -999 10 10 102480 63
2006-06-01 05:06:17 51°18.665 2°40.134 -999 15 10 102480 63
2006-06-01 05:06:23 51°18.676 2°40.108 -999 16 10 102490 65
2006-06-01 05:06:28 51°18.686 2°40.085 -999 15 10 102490 65
2006-06-01 05:06:33 51°18.695 2°40.063 -999 16 10 102490 65
2006-06-01 05:06:39 51°18.706 2°40.034 -999 16 10 102490 65
2006-06-01 05:06:43 51°18.714 2°40.017 -999 14 10 102480 65
2006-06-01 05:06:49 51°18.725 2°39.991 -999 15 10 102480 65
2006-06-01 05:06:53 51°18.732 2°39.973 -999 12 10 102490 64
2006-06-01 05:06:56 51°18.737 2°39.959 -999 18 10 102490 64
2006-06-01 05:07:03 51°18.75 2°39.926 -999 19 10 102490 64
2006-06-01 05:07:09 51°18.76 2°39.9 -999 14 10 102490 64
2006-06-01 05:07:13 51°18.768 2°39.882 -999 16 10 102480 64
2006-06-01 05:07:19 51°18.779 2°39.855 -999 14 10 102480 64
2006-06-01 05:07:23 51°18.786 2°39.837 -999 12 10 102480 65
2006-06-01 05:07:28 51°18.797 2°39.815 -999 11 10 102480 65
2006-06-01 05:07:32 51°18.805 2°39.797 -999 16 10 102480 65
2006-06-01 05:07:39 51°18.818 2°39.766 -999 6 10 102480 65
2006-06-01 05:07:43 51°18.827 2°39.749 -999 14 10.1 102490 67
2006-06-01 05:07:48 51°18.836 2°39.727 -999 13 10.1 102490 67
2006-06-01 05:07:52 51°18.845 2°39.709 -999 11 10.1 102490 67
2006-06-01 05:07:59 51°18.858 2°39.678 -999 14 10.1 102490 67
2006-06-01 05:08:03 51°18.865 2°39.66 -999 11 10 102490 67
2006-06-01 05:08:09 51°18.878 2°39.632 -999 11 10 102490 67
2006-06-01 05:08:13 51°18.884 2°39.615 -999 12 10.1 102490 65
2006-06-01 05:08:19 51°18.897 2°39.587 -999 11 10.1 102490 65
2006-06-01 05:08:24 51°18.905 2°39.564 -999 14 10 102480 65
2006-06-01 05:08:29 51°18.915 2°39.541 -999 13 10 102480 65
2006-06-01 05:08:33 51°18.922 2°39.521 -999 13 10 102490 65
2006-06-01 05:08:39 51°18.933 2°39.495 -999 14 10 102490 65
2006-06-01 05:08:43 51°18.94 2°39.476 -999 11 10 102490 64
2006-06-01 05:08:49 51°18.952 2°39.45 -999 10 10 102490 64
2006-06-01 05:08:53 51°18.96 2°39.432 -999 11 10 102490 64
2006-06-01 05:08:59 51°18.971 2°39.405 -999 14 10 102490 64
2006-06-01 05:09:03 51°18.979 2°39.387 -999 14 10 102480 64
2006-06-01 05:09:09 51°18.99 2°39.358 -999 17 10 102480 64
2006-06-01 05:09:13 51°18.998 2°39.34 -999 19 10 102480 64
2006-06-01 05:09:19 51°19.008 2°39.311 -999 18 10 102480 64
2006-06-01 05:09:23 51°19.016 2°39.294 -999 16 10 102480 64
2006-06-01 05:09:29 51°19.028 2°39.266 -999 18 10 102480 64
2006-06-01 05:09:32 51°19.034 2°39.253 -999 19 10 102480 64
2006-06-01 05:09:39 51°19.047 2°39.221 -999 17 10 102480 64
2006-06-01 05:09:43 51°19.054 2°39.202 -999 18 10 102490 64
2006-06-01 05:09:48 51°19.064 2°39.178 -999 8 10 102490 64
2006-06-01 05:09:52 51°19.071 2°39.159 -999 14 10 102500 64
2006-06-01 05:09:59 51°19.084 2°39.127 -999 13 10 102500 64
2006-06-01 05:10:03 51°19.091 2°39.109 -999 10 10 102480 64
2006-06-01 05:10:08 51°19.1 2°39.085 -999 6 10 102480 64
2006-06-01 05:10:13 51°19.109 2°39.065 -999 9 10.1 102490 65
2006-06-01 05:10:19 51°19.12 2°39.035 -999 13 10.1 102490 65
2006-06-01 05:10:24 51°19.13 2°39.012 -999 13 10.1 102480 65
2006-06-01 05:10:29 51°19.139 2°38.989 -999 11 10.1 102480 65
2006-06-01 05:10:33 51°19.147 2°38.971 -999 10 10.1 102480 65
2006-06-01 05:10:39 51°19.159 2°38.943 -999 13 10.1 102480 65
2006-06-01 05:10:44 51°19.168 2°38.92 -999 9 10.1 102490 65
2006-06-01 05:10:49 51°19.177 2°38.897 -999 12 10.1 102490 65
2006-06-01 05:10:53 51°19.185 2°38.878 -999 12 10.1 102490 65
2006-06-01 05:10:56 51°19.19 2°38.863 -999 14 10.1 102490 65
2006-06-01 05:11:04 51°19.205 2°38.827 -999 14 10.1 102490 65
2006-06-01 05:11:09 51°19.214 2°38.802 -999 13 10.1 102490 65
2006-06-01 05:11:13 51°19.222 2°38.784 -999 13 10.1 102480 65
2006-06-01 05:11:17 51°19.229 2°38.766 -999 15 10.1 102480 65
2006-06-01 05:11:24 51°19.241 2°38.733 -999 15 10.1 102490 64
2006-06-01 05:11:28 51°19.249 2°38.714 -999 15 10.1 102490 64
2006-06-01 05:11:33 51°19.258 2°38.69 -999 14 10.1 102490 64
2006-06-01 05:11:39 51°19.269 2°38.662 -999 3 10.1 102490 64
2006-06-01 05:11:43 51°19.276 2°38.644 -999 12 10 102480 63
2006-06-01 05:11:49 51°19.287 2°38.616 -999 7 10 102480 63
2006-06-01 05:11:53 51°19.295 2°38.598 -999 9 10 102490 63
2006-06-01 05:11:59 51°19.306 2°38.57 -999 7 10 102490 63
2006-06-01 05:12:03 51°19.314 2°38.551 -999 7 10.1 102490 64
2006-06-01 05:12:08 51°19.323 2°38.529 -999 4 10.1 102490 64
2006-06-01 05:12:13 51°19.332 2°38.505 -999 13 10.1 102490 64
2006-06-01 05:12:19 51°19.343 2°38.475 -999 9 10.1 102490 64
2006-06-01 05:12:23 51°19.351 2°38.458 -999 10 10.1 102480 64
2006-06-01 05:12:29 51°19.362 2°38.43 -999 14 10.1 102480 64
2006-06-01 05:12:32 51°19.368 2°38.417 -999 8 10.1 102490 64
2006-06-01 05:12:39 51°19.38 2°38.384 -999 11 10.1 102490 64
2006-06-01 05:12:42 51°19.387 2°38.37 -999 12 10.1 102500 65
2006-06-01 05:12:49 51°19.4 2°38.337 -999 17 10.1 102500 65
2006-06-01 05:12:53 51°19.407 2°38.319 -999 11 10.1 102490 65
2006-06-01 05:12:58 51°19.416 2°38.297 -999 6 10.1 102490 65
2006-06-01 05:13:04 51°19.428 2°38.267 -999 9 10.1 102490 66
2006-06-01 05:13:09 51°19.437 2°38.245 -999 12 10.1 102490 66
2006-06-01 05:13:13 51°19.444 2°38.227 -999 8 10.1 102490 65
2006-06-01 05:13:16 51°19.45 2°38.214 -999 10 10.1 102490 65
2006-06-01 05:13:24 51°19.465 2°38.176 -999 13 10.1 102490 66
2006-06-01 05:13:29 51°19.474 2°38.153 -999 13 10.1 102490 66
2006-06-01 05:13:33 51°19.482 2°38.134 -999 14 10.1 102490 66
2006-06-01 05:13:37 51°19.49 2°38.116 -999 12 10.1 102490 66
2006-06-01 05:13:44 51°19.502 2°38.083 -999 13 10.1 102490 64
2006-06-01 05:13:49 51°19.511 2°38.061 -999 12 10.1 102490 64
2006-06-01 05:13:53 51°19.519 2°38.043 -999 17 10 102490 64
2006-06-01 05:13:59 51°19.529 2°38.015 -999 13 10 102490 64
2006-06-01 05:14:03 51°19.538 2°37.997 -999 14 10.1 102490 64
2006-06-01 05:14:09 51°19.548 2°37.97 -999 16 10.1 102490 64
2006-06-01 05:14:13 51°19.556 2°37.951 -999 14 10.1 102480 65
2006-06-01 05:14:19 51°19.567 2°37.925 -999 14 10.1 102480 65
2006-06-01 05:14:23 51°19.574 2°37.908 -999 9 10.1 102480 65
2006-06-01 05:14:29 51°19.583 2°37.885 -999 9 10.1 102480 65
2006-06-01 05:14:32 51°19.587 2°37.874 -999 14 10.1 102480 65
2006-06-01 05:14:39 51°19.598 2°37.851 -999 14 10.1 102480 65
2006-06-01 05:14:43 51°19.603 2°37.838 -999 13 10.1 102490 64
2006-06-01 05:14:48 51°19.609 2°37.824 -999 18 10.1 102490 64
2006-06-01 05:14:53 51°19.615 2°37.811 -999 9 10.1 102510 64
2006-06-01 05:14:59 51°19.623 2°37.796 -999 11 10.1 102510 64
2006-06-01 05:15:04 51°19.629 2°37.784 -999 10 10 102510 63
2006-06-01 05:15:09 51°19.633 2°37.773 -999 13 10 102510 63
2006-06-01 05:15:13 51°19.638 2°37.766 -999 9 10 102530 63
2006-06-01 05:15:18 51°19.643 2°37.755 -999 10 10 102530 63
2006-06-01 05:15:24 51°19.648 2°37.743 -999 10 10 102520 63
2006-06-01 05:15:29 51°19.653 2°37.734 -999 11 10 102520 63
2006-06-01 05:15:33 51°19.657 2°37.726 -999 10 10 102520 64
2006-06-01 05:15:39 51°19.662 2°37.716 -999 9 10 102520 64
2006-06-01 05:15:43 51°19.666 2°37.709 -999 10 10 102520 64
2006-06-01 05:15:49 51°19.671 2°37.701 -999 9 10 102520 64
2006-06-01 05:15:53 51°19.674 2°37.694 -999 9 10 102520 64
2006-06-01 05:15:59 51°19.68 2°37.684 -999 11 10 102520 64
2006-06-01 05:16:04 51°19.683 2°37.676 -999 15 10 102530 64
2006-06-01 05:16:09 51°19.687 2°37.668 -999 12 10 102530 64
2006-06-01 05:16:13 51°19.69 2°37.662 -999 11 10 102520 64
2006-06-01 05:16:19 51°19.694 2°37.654 -999 9 10 102520 64
2006-06-01 05:16:23 51°19.697 2°37.647 -999 15 10 102530 64
2006-06-01 05:16:28 51°19.7 2°37.641 -999 14 10 102530 64
2006-06-01 05:16:33 51°19.705 2°37.634 -999 18 10 102520 64
2006-06-01 05:16:39 51°19.708 2°37.626 -999 20 10 102520 64
2006-06-01 05:16:43 51°19.711 2°37.62 -999 6 10 102520 65
2006-06-01 05:16:48 51°19.715 2°37.614 -999 11 10 102520 65
2006-06-01 05:16:53 51°19.718 2°37.607 -999 9 10 102520 65
2006-06-01 05:16:59 51°19.723 2°37.599 -999 10 10 102520 65
2006-06-01 05:17:03 51°19.725 2°37.593 -999 17 10 102510 65
2006-06-01 05:17:09 51°19.729 2°37.586 -999 9 10 102510 65
2006-06-01 05:17:13 51°19.733 2°37.582 -999 13 10 102520 65
2006-06-01 05:17:19 51°19.737 2°37.574 -999 14 10 102520 65
2006-06-01 05:17:24 51°19.74 2°37.567 -999 7 10 102530 65
2006-06-01 05:17:29 51°19.744 2°37.562 -999 10 10 102530 65
2006-06-01 05:17:33 51°19.746 2°37.556 -999 7 10.1 102520 65
2006-06-01 05:17:39 51°19.751 2°37.551 -999 8 10.1 102520 65
2006-06-01 05:17:43 51°19.754 2°37.546 -999 7 10 102510 65
2006-06-01 05:17:49 51°19.758 2°37.54 -999 358 10 102510 65
2006-06-01 05:17:53 51°19.761 2°37.536 -999 9 10 102510 64
2006-06-01 05:17:59 51°19.764 2°37.53 -999 9 10 102510 64
2006-06-01 05:18:04 51°19.768 2°37.525 -999 1 10 102520 64
2006-06-01 05:18:09 51°19.771 2°37.521 -999 9 10 102520 64
2006-06-01 05:18:13 51°19.774 2°37.518 -999 12 10 102520 65
2006-06-01 05:18:18 51°19.776 2°37.514 -999 5 10 102520 65
2006-06-01 05:18:23 51°19.78 2°37.51 -999 6 10 102520 65
2006-06-01 05:18:28 51°19.783 2°37.506 -999 7 10 102520 65
2006-06-01 05:18:33 51°19.786 2°37.502 -999 10 10 102520 65
2006-06-01 05:18:38 51°19.789 2°37.498 -999 19 10 102520 65
2006-06-01 05:18:43 51°19.793 2°37.494 -999 11 10 102520 65
2006-06-01 05:18:48 51°19.795 2°37.491 -999 12 10 102520 65
2006-06-01 05:18:53 51°19.798 2°37.488 -999 14 10 102520 64
2006-06-01 05:18:59 51°19.801 2°37.483 -999 18 10 102520 64
2006-06-01 05:19:03 51°19.803 2°37.48 -999 19 10 102520 64
2006-06-01 05:19:08 51°19.806 2°37.476 -999 14 10 102520 64
2006-06-01 05:19:13 51°19.808 2°37.473 -999 19 10 102510 65
2006-06-01 05:19:19 51°19.811 2°37.469 -999 18 10 102510 65
2006-06-01 05:19:23 51°19.814 2°37.466 -999 11 10.1 102510 65
2006-06-01 05:19:28 51°19.816 2°37.463 -999 13 10.1 102510 65
2006-06-01 05:19:33 51°19.819 2°37.459 -999 4 10 102520 65
2006-06-01 05:19:37 51°19.821 2°37.457 -999 4 10 102520 65
2006-06-01 05:19:44 51°19.824 2°37.452 -999 12 10 102520 64
2006-06-01 05:19:49 51°19.827 2°37.449 -999 10 10 102520 64
2006-06-01 05:19:53 51°19.828 2°37.446 -999 16 10 102520 65
2006-06-01 05:19:58 51°19.831 2°37.443 -999 17 10 102520 65
2006-06-01 05:20:04 51°19.833 2°37.438 -999 17 10 102520 65
2006-06-01 05:20:09 51°19.836 2°37.435 -999 15 10 102520 65
2006-06-01 05:20:13 51°19.837 2°37.433 -999 13 10 102520 66
2006-06-01 05:20:19 51°19.84 2°37.429 -999 21 10 102520 66
2006-06-01 05:20:24 51°19.842 2°37.425 -999 17 10 102510 65
2006-06-01 05:20:28 51°19.844 2°37.423 -999 18 10 102510 65
2006-06-01 05:20:34 51°19.846 2°37.419 -999 19 10 102520 65
2006-06-01 05:20:38 51°19.847 2°37.416 -999 23 10 102520 65
2006-06-01 05:20:44 51°19.849 2°37.412 -999 18 10 102510 65
2006-06-01 05:20:49 51°19.851 2°37.409 -999 18 10 102510 65